Location: *
(49.5667°N, 1.3667°W)
Time: 19:55:11
(UTC+00:00)

ISS - Pass Details

Date: 20 September 2019
Orbit: 411 x 421 km, 51.6° (Epoch: 16 October)

Event Time Altitude Azimuth Distance (km) Brightness Sun altitude
Rises 19:21:51 0° 212° (SSW) 2,332 0.2 -12.5°
Reaches altitude 10° 19:24:11 10° 197° (SSW) 1,474 -1.0 -12.9°
Maximum altitude 19:26:53 23° 143° (SE) 924 -2.5 -13.3°
Enters shadow 19:27:10 23° 134° (SE) 934 -2.5 -13.3°
